Showing default

ZHUHAI-1 03E, 44539

Orbit data source: Space-Track

ZHUHAI-1 03E, 44539 is a payload satellite owned by Zhuhai Orbita (CN) in SSO that was launched on Thu, 19 Sep 2019 UTC via a CHANG ZHENG 11 launch vehicle from the Jiuquan Satellite Launch Center, China (JSC). Payload-class satellites include a variety of spacecraft equipped with specific instruments for various scientific and technological missions. These include communications satellites like Starlink; space stations such as the ISS; scientific satellites like the Hubble; Earth observation satellites from companies like Planet Labs, Umbra, and HawkEye 360; GPS; miniature CubeSats for education and research; and military/defense satellites.

Loading next visibility...
Identifier
44539, 2019-060F
Orbit
SSO
Last TLE update
4 hours ago
Origin
Manufacturer
Harbin
Mission
Operational Commercial Imaging
Bus & Motor
OVS-1, Unknown motor
Mass
95 kg wet, 95 kg dry
Launch date (UTC)
2019-09-19 (6 years ago)
Launch vehicle
CHANG ZHENG 11
Launch site
Jiuquan Satellite Launch Center, China (JSC)
Object type
Payload
Rocket body
Debris
Shape & HBR
Box, Unknown HBR
Radar Cross Section
0.375 m², Medium (>0.1 m² and < 1m²)

Expand to show TLE details & history

TLE from 4 hours ago
0 ZHUHAI-1 03E
1 44539U 19060F   25189.18581462  .00009841  00000-0  36542-3 0  9996
2 44539  97.5226 326.7756 0012293 151.6196 208.5714 15.27705063323023
Epoch: 2025-07-08T04:27Z
TLE epoch observation values (Epoch: 2025-07-08T04:27:34.383Z)
Latitude
-0.0001°
Longitude
-26.50207°
Altitude
493.183 km
Speed
7.614 km/s
True Right ascension
21h 47m 06s
True Declination
0° 00' 00"
Sunlit
Object was in full shadow at epoch
Visualization orbit readout
Latitude
-23.95626°
Longitude
150.32237°
Altitude
486.669 km
Speed
7.623 km/s
Apparent Right ascension
09h 08m 30s
Apparent Declination
-31° 41' 16"
Sunlit
Object is in daylight
Visualization observer readout
Local Sidereal Time
20:35:17
Azimuth
318.185° NNW
Elevation
-79.377°
Doppler factor
1
Orbital elements
Apogee altitude
488.066 km
Perigee altitude
471.205 km
Semi-major axis
6,857.772 km
Eccentricity
0.00123
Inclination
97.5226°
RAAN
326.7756°
Arg. of periapsis
151.6196°
True anomaly
Unknown
Mean anomaly
208.5714°
Eccentric anomaly
Unknown
Mean motion
3.82181 °/min
Orbital period
94.2 mins
BSTAR
0.00036542
Loading maneuver chart data...
Loading SW <> Apogee altitude chart data...
Loading historical data...
Loading historical data...
Loading historical data...
Loading historical data...
Loading historical data...
Loading historical data...
Loading historical data...

ZHUHAI-1 03E Visibility forecast

Observer location: undefined°, undefined°

Span
Click to sort rows by Start time (UTC) header in descending order
Start Az.
Max El. time (UTC)
Max El. Az.
Max El.
End time (UTC)
End Az.
7 mins2025-07-08 09:17:33.642Z170.953° S2025-07-08 09:20:33.642Z191.866° SSW41.838°2025-07-08 09:24:33.642Z345.297° N
5 mins2025-07-08 22:19:33.642Z354.884° N2025-07-08 22:21:33.642Z276.825° WNW39.545°2025-07-08 22:24:33.642Z207.599° SW
|